When you browse on this site, cookies collect data to enhance your experience and personalize the content and advertising you see.
Visit our Privacy Policy to learn more. By continuing to use the site, you agree to this use of cookies and data.
  • In Czech Republic
  • List of Countries
  • For 7 days
  • Water Temperature
  • Satellite Maps
  • Weather Map
  • Weather Widgets
  • user-avatar
    Login

    Hourly Weather Brisbane

    Today, 26 April, Friday

    Time Temperature Precipitation Wind Pressure Humidity
    00:00 +21°C° 0 mm 1 mps 762 mmHg 85%
    01:00 +19°C° 0 mm 0 mps 762 mmHg 86%
    02:00 +21°C° 0 mm 1 mps 762 mmHg 87%
    03:00 +21°C° 0 mm 1 mps 762 mmHg 87%
    04:00 +21°C° 0 mm 1 mps 761 mmHg 88%
    05:00 +21°C° 0 mm 1 mps 762 mmHg 88%
    06:00 +21°C° 0 mm 1 mps 762 mmHg 88%
    07:00 +21°C° 0 mm 1 mps 762 mmHg 88%
    08:00 +23°C° 0 mm 1 mps 762 mmHg 79%
    09:00 +25°C° 0 mm 1 mps 762 mmHg 69%
    10:00 +26°C° 0 mm 0 mps 762 mmHg 61%
    11:00 +28°C° 0 mm 1 mps 761 mmHg 57%
    12:00 +29°C° 0 mm 1 mps 761 mmHg 54%
    13:00 +29°C° 0 mm 1 mps 760 mmHg 51%
    14:00 +29°C° 0 mm 2 mps 760 mmHg 54%
    15:00 +28°C° 0 mm 2 mps 760 mmHg 57%
    16:00 +27°C° 0 mm 2 mps 759 mmHg 62%
    17:00 +26°C° 0 mm 2 mps 760 mmHg 69%
    18:00 +24°C° 0 mm 2 mps 760 mmHg 75%
    19:00 +23°C° 0 mm 2 mps 760 mmHg 82%
    20:00 +23°C° 0 mm 2 mps 760 mmHg 84%
    21:00 +21°C° 0 mm 2 mps 760 mmHg 87%
    22:00 +21°C° 0 mm 2 mps 761 mmHg 90%
    23:00 +21°C° 0 mm 2 mps 761 mmHg 90%

    Tomorrow, 27 April, Saturday

    Time Temperature Precipitation Wind Pressure Humidity
    00:00 +20°C° 0 mm 2 mps 761 mmHg 90%
    01:00 +20°C° 0 mm 2 mps 761 mmHg 91%
    02:00 +20°C° 0 mm 2 mps 761 mmHg 90%
    03:00 +19°C° 0 mm 2 mps 761 mmHg 89%
    04:00 +19°C° 0 mm 2 mps 761 mmHg 89%
    05:00 +19°C° 0 mm 2 mps 761 mmHg 86%
    06:00 +19°C° 0 mm 2 mps 761 mmHg 83%
    07:00 +20°C° 0 mm 2 mps 762 mmHg 80%
    08:00 +22°C° 0 mm 3 mps 762 mmHg 71%
    09:00 +25°C° 0 mm 3 mps 763 mmHg 63%
    10:00 +27°C° 0 mm 4 mps 763 mmHg 55%
    11:00 +28°C° 0 mm 4 mps 763 mmHg 53%
    12:00 +28°C° 0 mm 4 mps 762 mmHg 51%
    13:00 +29°C° 0 mm 4 mps 762 mmHg 49%
    14:00 +28°C° 0 mm 4 mps 762 mmHg 50%
    15:00 +27°C° 0 mm 4 mps 762 mmHg 52%
    16:00 +27°C° 0 mm 4 mps 762 mmHg 54%
    17:00 +25°C° 0 mm 4 mps 762 mmHg 58%
    18:00 +23°C° 0 mm 4 mps 763 mmHg 63%
    19:00 +22°C° 0 mm 4 mps 763 mmHg 67%
    20:00 +21°C° 0 mm 4 mps 764 mmHg 72%
    21:00 +20°C° 0 mm 4 mps 764 mmHg 77%
    22:00 +20°C° 0 mm 3 mps 765 mmHg 82%
    23:00 +20°C° 0 mm 3 mps 765 mmHg 84%

    Day after tomorrow, 28 April, Sunday

    Time Temperature Precipitation Wind Pressure Humidity
    00:00 +19°C° 0 mm 3 mps 765 mmHg 85%
    01:00 +19°C° 0 mm 3 mps 764 mmHg 87%
    02:00 +19°C° 0 mm 3 mps 764 mmHg 88%
    03:00 +19°C° 0 mm 3 mps 764 mmHg 89%
    04:00 +18°C° 0 mm 2 mps 764 mmHg 90%
    05:00 +18°C° 0 mm 2 mps 764 mmHg 89%
    06:00 +18°C° 0 mm 2 mps 764 mmHg 89%
    07:00 +18°C° 0 mm 2 mps 765 mmHg 89%
    08:00 +20°C° 0 mm 2 mps 765 mmHg 81%
    09:00 +24°C° 0 mm 2 mps 765 mmHg 72%
    10:00 +26°C° 0 mm 2 mps 765 mmHg 64%
    11:00 +26°C° 0 mm 2 mps 765 mmHg 63%
    12:00 +26°C° 0 mm 2 mps 764 mmHg 63%
    13:00 +26°C° 0 mm 2 mps 764 mmHg 63%
    14:00 +25°C° 0 mm 2 mps 763 mmHg 63%
    15:00 +25°C° 0 mm 2 mps 763 mmHg 63%
    16:00 +25°C° 0 mm 2 mps 763 mmHg 63%
    17:00 +24°C° 0 mm 2 mps 763 mmHg 68%
    18:00 +23°C° 0 mm 2 mps 764 mmHg 74%
    19:00 +21°C° 0 mm 2 mps 764 mmHg 79%
    20:00 +21°C° 0 mm 1 mps 764 mmHg 81%
    21:00 +21°C° 0 mm 1 mps 765 mmHg 83%
    22:00 +18°C° 0 mm 0 mps 765 mmHg 85%
    23:00 +18°C° 0 mm 0 mps 765 mmHg 86%

    29 April, Monday

    Time Temperature Precipitation Wind Pressure Humidity
    00:00 +20°C° 0 mm 1 mps 765 mmHg 87%
    01:00 +19°C° 0 mm 1 mps 765 mmHg 89%
    02:00 +20°C° 0 mm 1 mps 764 mmHg 89%
    03:00 +20°C° 0 mm 1 mps 764 mmHg 88%
    04:00 +19°C° 0 mm 2 mps 764 mmHg 88%
    05:00 +19°C° 0.1 mm 2 mps 765 mmHg 88%
    06:00 +19°C° 0.1 mm 2 mps 765 mmHg 87%
    07:00 +20°C° 0.1 mm 2 mps 766 mmHg 86%
    08:00 +21°C° 0.1 mm 2 mps 766 mmHg 80%
    09:00 +22°C° 0.1 mm 3 mps 766 mmHg 74%
    10:00 +24°C° 0.1 mm 3 mps 766 mmHg 68%
    11:00 +25°C° 0.1 mm 3 mps 765 mmHg 66%
    12:00 +25°C° 0.1 mm 3 mps 765 mmHg 63%
    13:00 +25°C° 0.1 mm 4 mps 764 mmHg 61%
    14:00 +25°C° 0 mm 3 mps 764 mmHg 63%
    15:00 +24°C° 0 mm 3 mps 764 mmHg 65%
    16:00 +24°C° 0 mm 3 mps 764 mmHg 66%
    17:00 +22°C° 0 mm 3 mps 765 mmHg 68%
    18:00 +21°C° 0 mm 3 mps 765 mmHg 69%
    19:00 +21°C° 0 mm 3 mps 765 mmHg 70%
    20:00 +20°C° 0 mm 3 mps 766 mmHg 74%
    21:00 +19°C° 0 mm 3 mps 766 mmHg 77%
    22:00 +19°C° 0 mm 2 mps 766 mmHg 80%
    23:00 +18°C° 0 mm 2 mps 766 mmHg 81%

    30 April, Tuesday

    Time Temperature Precipitation Wind Pressure Humidity
    00:00 +18°C° 0 mm 2 mps 765 mmHg 83%
    01:00 +18°C° 0 mm 2 mps 765 mmHg 85%
    02:00 +18°C° 0 mm 2 mps 765 mmHg 85%
    03:00 +18°C° 0 mm 2 mps 764 mmHg 86%
    04:00 +18°C° 0 mm 2 mps 764 mmHg 87%
    05:00 +18°C° 0.1 mm 2 mps 764 mmHg 87%
    06:00 +18°C° 0.1 mm 2 mps 765 mmHg 87%
    07:00 +18°C° 0.1 mm 2 mps 765 mmHg 88%
    08:00 +20°C° 0.1 mm 2 mps 765 mmHg 81%
    09:00 +23°C° 0.1 mm 2 mps 765 mmHg 75%
    10:00 +25°C° 0.1 mm 2 mps 765 mmHg 69%
    11:00 +25°C° 0.2 mm 3 mps 764 mmHg 66%
    12:00 +26°C° 0.2 mm 3 mps 763 mmHg 63%
    13:00 +26°C° 0.2 mm 3 mps 763 mmHg 61%
    14:00 +26°C° 0 mm 3 mps 763 mmHg 62%
    15:00 +26°C° 0 mm 3 mps 762 mmHg 63%
    16:00 +25°C° 0 mm 3 mps 762 mmHg 64%
    17:00 +24°C° 0 mm 2 mps 763 mmHg 69%
    18:00 +23°C° 0 mm 2 mps 763 mmHg 75%
    19:00 +21°C° 0 mm 2 mps 764 mmHg 80%
    20:00 +22°C° 0 mm 1 mps 764 mmHg 82%
    21:00 +21°C° 0 mm 1 mps 764 mmHg 84%
    22:00 +21°C° 0 mm 1 mps 764 mmHg 85%
    23:00 +21°C° 0.2 mm 1 mps 764 mmHg 87%

    1 May, Wednesday

    Time Temperature Precipitation Wind Pressure Humidity
    00:00 +21°C° 0.2 mm 1 mps 763 mmHg 88%
    01:00 +21°C° 0.2 mm 1 mps 763 mmHg 90%
    02:00 +21°C° 0.7 mm 1 mps 763 mmHg 90%
    03:00 +21°C° 0.7 mm 1 mps 763 mmHg 90%
    04:00 +21°C° 0.7 mm 1 mps 763 mmHg 90%
    05:00 +22°C° 0.6 mm 1 mps 763 mmHg 90%
    06:00 +22°C° 0.6 mm 1 mps 763 mmHg 90%
    07:00 +22°C° 0.6 mm 1 mps 763 mmHg 90%
    08:00 +23°C° 0.3 mm 2 mps 763 mmHg 86%
    09:00 +24°C° 0.3 mm 2 mps 763 mmHg 82%
    10:00 +25°C° 0.3 mm 3 mps 763 mmHg 78%
    11:00 +26°C° 0.1 mm 3 mps 762 mmHg 72%
    12:00 +27°C° 0.1 mm 3 mps 762 mmHg 67%
    13:00 +28°C° 0.1 mm 3 mps 761 mmHg 61%
    14:00 +27°C° 0 mm 3 mps 761 mmHg 63%
    15:00 +27°C° 0 mm 3 mps 761 mmHg 64%
    16:00 +26°C° 0 mm 3 mps 761 mmHg 66%
    17:00 +25°C° 0 mm 3 mps 762 mmHg 72%
    18:00 +24°C° 0 mm 3 mps 762 mmHg 78%
    19:00 +23°C° 0 mm 2 mps 763 mmHg 85%
    20:00 +23°C° 0 mm 2 mps 763 mmHg 87%
    21:00 +21°C° 0 mm 2 mps 763 mmHg 89%
    22:00 +22°C° 0 mm 1 mps 763 mmHg 91%
    23:00 +22°C° 0 mm 1 mps 763 mmHg 91%
    Show more